Regional Weather Roundup
Issued by NWS Sterling, VA

Home | Current Version | Previous Version | Text Only | Print | Product List | Glossary Off
Versions: 1 2 3 4 5 6 7 8 9 10 11 12 13 14 15 16 17 18 19 20 21 22 23 24 25 26 27 28 29 30 31 32 33 34 35 36 37 38 39 40 41 42 43 44 45 46 47 48 49 50

000
ASUS41 KLWX 241510
RWRLWX

REGIONAL WEATHER ROUNDUP
NATIONAL WEATHER SERVICE BALTIMORE MD/WASHINGTON DC
1100 AM EDT FRI MAR 24 2017

Note: "FAIR" indicates few or no clouds below 12,000 feet
with no significant weather and/or obstructions to visibility.
 TC=TEMPERATURE CELSIUS

 * =Non NWS site. Station does not report precipitation (e.g. rain,
    snow, etc.), thunder, or fog.

DCZ001-MDZ009-015-VAZ040>042-051-053>054-241600-
WASHINGTON METRO

CITY           SKY/WX    TMP DP  RH WIND       PRES   REMARKS
WASHINGTON NAT LGT RAIN  40  35  83 S13       30.44F
DULLES         LGT RAIN  38  34  85 S12       30.41F
ANDREWS AFB    LGT RAIN  42  32  68 SW14      30.41F
FT BELVOIR     CLOUDY    39  32  75 S7        30.43F
QUANTICO       CLOUDY    42  33  70 S13       30.47F
COLLEGE PARK*  CLOUDY    41  32  70 S8        30.42F
LEESBURG*      MIX PCPN  37  36  93 SW7       30.41S
MANASSAS*      LGT RAIN  41  35  79 SW7       30.44F

$$

MDZ006>007-011-014-241600-
BALTIMORE METRO

CITY           SKY/WX    TMP DP  RH WIND       PRES   REMARKS
BWI AIRPORT    LGT RAIN  44  31  60 SW10G22   30.42F
MD SCIENCE CTR   N/A     47  27  45 MISG      30.46F
ANNAPOLIS      CLOUDY    47  26  44 S16G23    30.43F
FORT MEADE*    CLOUDY    45  32  61 SW10G16   30.44F

$$

MDZ012-015-019>023-241600-
MARYLAND EASTERN SHORE

CITY           SKY/WX    TMP DP  RH WIND       PRES   REMARKS
OCEAN CITY     CLOUDY    47  33  58 S10G18    30.50F
SALISBURY      MOSUNNY   48  25  40 SW14G20   30.49F
BAY BRIDGE AP* CLOUDY    46  27  46 S15G24    30.45F
CAMBRIDGE*     SUNNY     48  25  40 S14       30.48F

$$

MDZ017>025-241600-
SOUTHERN MARYLAND

CITY           SKY/WX    TMP DP  RH WIND       PRES   REMARKS
PATUXENT RIVER CLOUDY    44  26  49 SW12      30.48F
ST INIGOES     PTSUNNY   44  27  51 S10       30.48F
LEONARDTOWN*   MOSUNNY   43  27  52 SW13      30.48F

$$

MDZ003>005-241600-
NORTH CENTRAL MARYLAND

CITY           SKY/WX    TMP DP  RH WIND       PRES   REMARKS
FREDERICK*     DRIZZLE   39  37  93 SW8       30.45R
HAGERSTOWN APT CLOUDY    38  35  89 S8        30.35F
WESTMINSTER*   RAIN      39  36  87 SW10      30.37S

$$

MDZ501>502-241600-
WESTERN MARYLAND

CITY           SKY/WX    TMP DP  RH WIND       PRES   REMARKS
OAKLAND*       CLOUDY    50  37  62 SW13G26   30.27F
CUMBERLAND*    MOSUNNY   41  36  81 CALM      30.35F

$$

VAZ025>031-241600-
SHENANDOAH VALLEY

CITY           SKY/WX    TMP DP  RH WIND       PRES   REMARKS
WINCHESTER*    CLOUDY    39  34  81 S10G16    30.35F
FRONT ROYAL*     N/A    N/A N/A N/A MISG        N/A
LURAY*         CLOUDY    45  37  76 SW6       30.39S
NEW MARKET*    CLOUDY    44  33  65 SW3       30.37F
STAUNTON*      CLOUDY    46  28  49 S8        30.40F
WAYNESBORO*    CLOUDY    44  27  51 CALM      30.40S

$$

WVZ021-048>050-054>055-241600-
EASTERN WEST VIRGINIA PANHANDLE

CITY           SKY/WX    TMP DP  RH WIND       PRES   REMARKS
MARTINSBURG    PTSUNNY   38  35  89 SE6       30.35R
PETERSBURG*    MOSUNNY   55  31  39 S9        30.32F

$$

VAZ036>039-050-241600-
CENTRAL FOOTHILLS

CITY           SKY/WX    TMP DP  RH WIND       PRES   REMARKS
CHARLOTTESVILL CLOUDY    42  32  67 S7        30.43F
CULPEPER*      RAIN      40  36  84 S6        30.45S
ORANGE*        CLOUDY    37  32  81 S6        30.45F
GORDONSVILLE*  CLOUDY    39  33  77 CALM      30.44F
WARRENTON*     DRIZZLE   40  33  75 SW9       30.43S

$$

VAZ055>057-241600-
NORTH AND CENTRAL PIEDMONT

CITY           SKY/WX    TMP DP  RH WIND       PRES   REMARKS
FREDERICKSBRG* CLOUDY    45  32  61 S8        30.46F
STAFFORD*      PTSUNNY   43  32  65 S13G20    30.49F

$$

NCZ024-NYZ072-PAZ021-071-VAZ022-071-241600-
OTHER REGIONAL OBSERVATIONS

CITY           SKY/WX    TMP DP  RH WIND       PRES   REMARKS
NEW YORK CITY  MOSUNNY   44  23  43 VRB3      30.43F
PHILADELPHIA   CLOUDY    45  26  47 SW14G25   30.43F
PITTSBURGH     CLOUDY    55  37  50 SW15G24   30.19F
ROANOKE        CLOUDY    47  29  49 CALM      30.45S
RICHMOND       PTSUNNY   49  21  33 SW13      30.50F
RALEIGH        MOSUNNY   57  38  48 SW8       30.51S

$$

ANZ530>537-241600-
MARINE OBSERVATIONS

STATION/POSITION TIME  TEMP    WIND        PRES
                       AIR SEA DIR/SP/G
                 (UTC) (F)     (DEG/KT/KT) (MB)
THOMAS PT LIGHT  1500   42 43  190/ 17/ 19   N/A
BALT KEY BRIDGE  1448   44     200/  9/ 12 1030.5F
COVE POINT       1448   43     230/ 12/ 18 1032.5F
LEWISETTA        1448   44 46  230/  9/ 14 1032.4F
SOLOMONS ISLAND  1448   44 44  220/ 11/ 15   N/A
PINEY POINT      1442          230/  7/  9   N/A

$$




USA.gov is the U.S. government's official web portal to all federal, state and local government web resources and services.